This is the latest recevied weather packets stored in our database for station/object N1JOV-7. If no packets are shown the sender has not sent any weather packets the latest 10 day(s).
| Time | Temp. | Humidity | Pressure | Rain* | Wind** | Luminosity | Snow |
|---|---|---|---|---|---|---|---|
| 1777590661 | 7.78° C | 99% | 1006.6 hPa | 0 mm | - | - | - |
| 1777590061 | 7.78° C | 99% | 1006.5 hPa | 0 mm | - | - | - |
| 1777589461 | 7.78° C | 99% | 1006.7 hPa | 0 mm | - | - | - |
| 1777588862 | 7.78° C | 99% | 1006.5 hPa | 0 mm | - | - | - |
| 1777588262 | 7.78° C | 99% | 1006.3 hPa | 0 mm | - | - | - |
| 1777587662 | 7.78° C | 99% | 1006 hPa | 0 mm | - | - | - |
| 1777587062 | 7.78° C | 99% | 1006 hPa | 0 mm | - | - | - |
| 1777586462 | 7.78° C | 99% | 1006.1 hPa | 0 mm | - | - | - |
| 1777585861 | 7.78° C | 99% | 1006.1 hPa | 0 mm | - | - | - |
| 1777585261 | 7.78° C | 99% | 1006.2 hPa | 0 mm | - | - | - |
| 1777584661 | 7.78° C | 99% | 1006.4 hPa | 0 mm | - | - | - |
| 1777584061 | 7.78° C | 99% | 1006.4 hPa | 1.27 mm | - | - | - |
| 1777583462 | 7.78° C | 99% | 1006.5 hPa | 1.27 mm | - | - | - |
| 1777582862 | 7.78° C | 99% | 1006.7 hPa | 0 mm | - | - | - |
| 1777582262 | 7.78° C | 99% | 1006.5 hPa | 0 mm | - | - | - |
| 1777581662 | 7.78° C | 99% | 1006.3 hPa | 0 mm | - | - | - |
| 1777581061 | 7.78° C | 99% | 1006.3 hPa | 1.02 mm | - | - | - |
| 1777580461 | 7.78° C | 99% | 1006.7 hPa | 1.27 mm | - | - | - |
| 1777579861 | 7.78° C | 99% | 1006.9 hPa | 0 mm | - | - | - |
| 1777579262 | 7.78° C | 99% | 1007 hPa | 0 mm | - | - | - |
| 1777578662 | 7.78° C | 99% | 1006.9 hPa | 0.76 mm | - | - | - |
| 1777578062 | 7.78° C | 99% | 1007 hPa | 0.76 mm | - | - | - |
| 1777577462 | 7.78° C | 99% | 1007.2 hPa | 0 mm | - | - | - |
| 1777576862 | 7.78° C | 99% | 1007.5 hPa | 1.27 mm | - | - | - |
| 1777576262 | 7.78° C | 99% | 1007.7 hPa | 0.76 mm | - | - | - |
* Rain latest hour (hover to see other rain measurements)
** Current wind speed in m/s (hover to see current wind gust speed)